Location: Newark
(25.0000°N, 73.5000°E)
Time: 12:02:07
(UTC+00:00)

Altair - Pass Details

Date: 06 March 2021
Orbit: 1501 x 1683 km, 47.2° (Epoch: 15 April)

Event Time Altitude Azimuth Distance (km) Brightness Sun altitude
Rises 19:59:51 0° 313° (NW) 4,753 - -67.8°
Reaches altitude 10° 20:02:52 10° 313° (NW) 3,791 - -67.5°
Maximum altitude 20:12:37 90° 47° (NE) 1,633 - -66.3°
Drops below altitude 10° 20:22:41 10° 135° (SE) 3,913 - -64.8°
Sets 20:25:51 0° 135° (SE) 4,912 - -64.3°
